Погода в Красном Октябре

Россия / Курганская область     55°39′09″N   64°48′40″E
темп.,
°C
ветер,
м/с
пор.,
м/с
влажн.,
%
обл.,
%
осадки,
мм/ч
давл.,
гПа
погр.,
м
9 мая, вс
вс923:00+15ссв1141100 0.0 101512
02:00+13св344299 0.0 101464
05:00+12всв2348100 0.0 101553
08:00+17всв3841100 0.0 1015318
11:00+21всв5833100 0.0 10151115
14:00+23в5925100 0.0 10143255
17:00+20в3936100 0.0 10162177
20:00+15юз367096 0.6 1018236
10 мая, пн
пн1023:00+13с2677100 0.6 1018139
02:00+12св4126190 0.0 1019354
05:00+10св4116152 0.0 1021357
08:00+13всв594574 0.0 1022680
11:00+16всв683389 0.0 10221312
14:00+18всв572791 0.0 10231729
17:00+18всв5727100 0.0 10231751
20:00+14св2544100 0.0 1025116
11 мая, вт
вт1123:00+11всв25515 0.0 102679
02:00+9вюв22555 0.0 102713
05:00+8св015693 0.0 102810
08:00+15всв12390 0.0 1029295
11:00+19всв22275 0.0 10291523
14:00+22с212482 0.0 10281851
17:00+21ссз2225100 0.0 10281776
20:00+16зсз1239100 0.0 102813
12 мая, ср
ср1223:00+14з224489 0.0 102814
02:00+11з224813 0.0 102813
05:00+10з355391 0.0 102967
08:00+15зсз3643100 0.0 1028281
11:00+20ссз355028 0.0 10281104
14:00+20с5652100 0.1 10271426
17:00+20с3644100 0.1 10271149
20:00+16ссв4951100 0.0 1028415
13 мая, чт
чт1323:00+11всв256696 0.0 102991
02:00+12св115977 0.0 102816
05:00+12з116230 0.0 102834
08:00+16зсз245217 0.0 1028468
11:00+21ссз464419 0.0 10271437
14:00+24ссз3636100 0.0 10252494
17:00+24сз2641100 0.0 10241090
20:00+19всв24564 0.0 102692